Change the Weather History Date:

Monday, November 26, 2012

  Actual Average Record
Temperature  
Mean Temperature -8 °F -  
Max Temperature -4 °F 5 °F 35 °F (2002)
Min Temperature -13 °F -2 °F -29 °F (2005)
Degree Days  
Heating Degree Days 74    
Moisture  
Dew Point -12 °F    
Average Humidity 85    
Maximum Humidity 100    
Minimum Humidity 64    
Precipitation  
Precipitation 0.00 in - - ()
Sea Level Pressure  
Sea Level Pressure 30.27 in    
Wind  
Wind Speed 0 mph (SW)    
Max Wind Speed 4 mph    
Max Gust Speed -    
Visibility 10 miles    
Events      
Averages and records for this station are not official NWS values.
T = Trace of Precipitation, MM = Missing Value Source: NWS Daily Summary

Daily Weather History Graph

Daily Weather History Graph

Search for Another Location

Airport or City:

Trip Planner

Search our weather history database for the weather conditions in past years. The results will help you decide how hot, cold, wet, or windy it might be!

Date:

Astronomy

Nov. 26, 2012 Rise Set
Actual Time 10:11 AM AKST 3:40 PM AKST
Civil Twilight 9:05 AM AKST 4:47 PM AKST
Nautical Twilight 8:01 AM AKST 5:50 PM AKST
Astronomical Twilight 7:04 AM AKST 6:48 PM AKST
Moon 3:01 PM AKST (11/26) 8:06 AM AKST (11/26)
Length of Visible Light 7h 41m
Length of Day
5h 29m
Waxing Gibbous, 97% of the Moon is Illuminated
Nov 26
Waxing Gibbous
Nov 28
Full
Dec 6
Last Quarter
Dec 12
New
Dec 19
First Quarter

Hourly Weather History & Observations

Time (AKST) Temp. Windchill Dew Point Humidity Pressure Visibility Wind Dir Wind Speed Gust Speed Precip Events Conditions
12:16 AM -7.6 °F - -11.2 °F 84% 30.35 in 10.0 mi Calm Calm - N/A   Clear
12:36 AM -7.6 °F - -11.2 °F 84% 30.35 in 10.0 mi Calm Calm - N/A   Clear
12:56 AM -7.6 °F - -11.2 °F 84% 30.35 in 10.0 mi Calm Calm - N/A   Clear
1:16 AM -9.4 °F - -11.2 °F 92% 30.34 in 10.0 mi Calm Calm - N/A   Clear
1:36 AM -9.4 °F - -13.0 °F 84% 30.35 in 10.0 mi Calm Calm - N/A   Clear
1:56 AM -7.6 °F - -13.0 °F 77% 30.35 in 10.0 mi Calm Calm - N/A   Clear
2:16 AM -7.6 °F - -9.4 °F 92% 30.35 in 10.0 mi Calm Calm - N/A   Clear
2:36 AM -11.2 °F - -20.2 °F 64% 30.35 in 10.0 mi Calm Calm - N/A   Clear
2:56 AM -9.4 °F - -14.8 °F 77% 30.35 in 10.0 mi Calm Calm - N/A   Clear
3:16 AM -9.4 °F - -9.4 °F 100% 30.34 in 10.0 mi Calm Calm - N/A   Clear
3:36 AM -11.2 °F - -18.4 °F 70% 30.34 in 10.0 mi Calm Calm - N/A   Clear
3:56 AM -11.2 °F - -14.8 °F 84% 30.34 in 10.0 mi Calm Calm - N/A   Clear
4:16 AM -11.2 °F - -16.6 °F 77% 30.34 in 10.0 mi Calm Calm - N/A   Clear
4:36 AM -9.4 °F - -14.8 °F 77% 30.34 in 10.0 mi Calm Calm - N/A   Clear
4:56 AM -11.2 °F - -14.8 °F 84% 30.34 in 10.0 mi Calm Calm - N/A   Clear
5:16 AM -11.2 °F - -16.6 °F 77% 30.34 in 10.0 mi Calm Calm - N/A   Clear
5:36 AM -11.2 °F - -16.6 °F 77% 30.34 in 10.0 mi Calm Calm - N/A   Clear
5:56 AM -11.2 °F - -13.0 °F 92% 30.33 in 10.0 mi Calm Calm - N/A   Clear
6:16 AM -11.2 °F - -14.8 °F 84% 30.33 in 10.0 mi Calm Calm - N/A   Clear
6:36 AM -13.0 °F - -14.8 °F 92% 30.33 in 10.0 mi Calm Calm - N/A   Clear
6:56 AM -9.4 °F - -14.8 °F 77% 30.32 in 10.0 mi Calm Calm - N/A   Clear
7:16 AM -7.6 °F - -9.4 °F 92% 30.32 in 10.0 mi Calm Calm - N/A   Clear
7:36 AM -9.4 °F - -14.8 °F 77% 30.32 in 10.0 mi Calm Calm - N/A   Clear
7:56 AM -9.4 °F - -13.0 °F 84% 30.31 in 10.0 mi Calm Calm - N/A   Clear
8:16 AM -9.4 °F - -13.0 °F 84% 30.31 in 10.0 mi Calm Calm - N/A   Clear
8:36 AM -11.2 °F - -16.6 °F 77% 30.31 in 10.0 mi Calm Calm - N/A   Clear
8:56 AM -9.4 °F - -9.4 °F 100% 30.31 in 10.0 mi Calm Calm - N/A   Clear
9:16 AM -11.2 °F - -18.4 °F 70% 30.30 in 10.0 mi Calm Calm - N/A   Clear
9:36 AM -9.4 °F - -11.2 °F 92% 30.30 in 10.0 mi Calm Calm - N/A   Clear
9:56 AM -9.4 °F - -11.2 °F 92% 30.30 in 10.0 mi Calm Calm - N/A   Clear
10:16 AM -9.4 °F - -13.0 °F 84% 30.31 in 10.0 mi Calm Calm - N/A   Clear
10:36 AM -9.4 °F - -13.0 °F 84% 30.30 in 10.0 mi Calm Calm - N/A   Clear
10:56 AM -11.2 °F - -11.2 °F 100% 30.30 in 10.0 mi Calm Calm - N/A   Clear
11:16 AM -7.6 °F - -11.2 °F 84% 30.30 in 10.0 mi North - - N/A   Clear
11:36 AM -11.2 °F - -16.6 °F 77% 30.30 in 10.0 mi Calm Calm - N/A   Clear
11:56 AM -11.2 °F - -14.8 °F 84% 30.30 in 10.0 mi Calm Calm - N/A   Clear
12:16 PM -9.4 °F - -11.2 °F 92% 30.29 in 10.0 mi Calm Calm - N/A   Clear
12:36 PM -9.4 °F -18.6 °F -9.4 °F 100% 30.29 in 10.0 mi SW 3.5 mph - N/A   Clear
12:56 PM -7.6 °F - -11.2 °F 84% 30.28 in 10.0 mi Calm Calm - N/A   Clear
1:16 PM -7.6 °F -16.5 °F -9.4 °F 92% 30.28 in 10.0 mi SW 3.5 mph - N/A   Clear
1:36 PM -5.8 °F -14.5 °F -9.4 °F 84% 30.28 in 10.0 mi SW 3.5 mph - N/A   Clear
1:56 PM -5.8 °F - -9.4 °F 84% 30.28 in 10.0 mi Calm Calm - N/A   Clear
2:16 PM -4.0 °F - -7.6 °F 85% 30.27 in 10.0 mi Calm Calm - N/A   Clear
2:36 PM -5.8 °F - -9.4 °F 84% 30.27 in 10.0 mi Calm Calm - N/A   Clear
2:56 PM -5.8 °F - -11.2 °F 77% 30.26 in 10.0 mi Calm Calm - N/A   Clear
3:16 PM -5.8 °F - -9.4 °F 84% 30.26 in 10.0 mi Calm Calm - N/A   Clear
3:36 PM -5.8 °F - -11.2 °F 77% 30.25 in 10.0 mi Calm Calm - N/A   Clear
3:56 PM -7.6 °F - -11.2 °F 84% 30.25 in 10.0 mi Calm Calm - N/A   Clear
4:16 PM -7.6 °F - -9.4 °F 92% 30.24 in 10.0 mi Calm Calm - N/A   Clear
4:36 PM -7.6 °F - -11.2 °F 84% 30.24 in 10.0 mi Calm Calm - N/A   Clear
4:56 PM -7.6 °F - -9.4 °F 92% 30.24 in 10.0 mi Calm Calm - N/A   Clear
5:16 PM -7.6 °F - -11.2 °F 84% 30.23 in 10.0 mi Calm Calm - N/A   Clear
5:36 PM -7.6 °F - -11.2 °F 84% 30.23 in 10.0 mi Calm Calm - N/A   Clear
5:56 PM -7.6 °F - -11.2 °F 84% 30.22 in 10.0 mi Calm Calm - N/A   Clear
6:16 PM -7.6 °F - -11.2 °F 84% 30.22 in 10.0 mi Calm Calm - N/A   Clear
6:36 PM -7.6 °F - -11.2 °F 84% 30.21 in 10.0 mi Calm Calm - N/A   Clear
6:56 PM -7.6 °F - -9.4 °F 92% 30.21 in 10.0 mi Calm Calm - N/A   Clear
7:16 PM -9.4 °F - -16.6 °F 71% 30.20 in 10.0 mi Calm Calm - N/A   Clear
7:36 PM -9.4 °F - -9.4 °F 100% 30.19 in 10.0 mi Calm Calm - N/A   Clear
7:56 PM -9.4 °F - -9.4 °F 100% 30.19 in 10.0 mi Calm Calm - N/A   Clear
8:16 PM -7.6 °F - -11.2 °F 84% 30.18 in 10.0 mi Calm Calm - N/A   Clear
8:36 PM -7.6 °F - -9.4 °F 92% 30.16 in 10.0 mi Calm Calm - N/A   Clear
8:56 PM -9.4 °F - -11.2 °F 92% 30.16 in 10.0 mi Calm Calm - N/A   Clear
9:16 PM -9.4 °F - -16.6 °F 71% 30.16 in 10.0 mi Calm Calm - N/A   Clear
9:36 PM -9.4 °F - -9.4 °F 100% 30.15 in 10.0 mi Calm Calm - N/A   Clear
9:56 PM -11.2 °F - -20.2 °F 64% 30.15 in 10.0 mi Calm Calm - N/A   Clear
10:16 PM -11.2 °F - -16.6 °F 77% 30.15 in 10.0 mi Calm Calm - N/A   Clear
10:36 PM -9.4 °F - -11.2 °F 92% 30.14 in 10.0 mi Calm Calm - N/A   Clear
10:56 PM -9.4 °F - -11.2 °F 92% 30.14 in 10.0 mi Calm Calm - N/A   Clear
11:16 PM -9.4 °F - -11.2 °F 92% 30.14 in 10.0 mi Calm Calm - N/A   Clear
11:36 PM -9.4 °F - -14.8 °F 77% 30.14 in 10.0 mi Calm Calm - N/A   Clear
11:56 PM -11.2 °F - -14.8 °F 84% 30.14 in 10.0 mi Calm Calm - N/A   Clear